User: anonymous   Login
Location: Unspecified
(0.0000°N, 0.0000°E)
Time: 23:53:51
(UTC+00:00)
Language:

STARLINK-3909 - Orbit

View from above orbital plane
View from above orbital plane
View from above satellite
View from above satellite

Ground track
Ground track

The orbit is defined by the following mean orbital elements,

1 52452U          26145.23022916 +.00000000 +00000-0 -17380-4 0 00008
2 52452  53.2143  85.3877 0001251  71.7385 288.3743 15.08845200    04
Epoch (UTC): 25 May 2026 05:31:31
Eccentricity: 0.0001251
inclination: 53.2143°
perigee height: 539 km
apogee height: 541 km
right ascension of ascending node: 85.3877°
argument of perigee: 71.7385°
revolutions per day: 15.08845200
mean anomaly at epoch: 288.3743°

The dashed part of the orbit path shows where the satellite is in the earth's shadow,  

DLR